Location: Unspecified
(50.1700°N, 6.8600°E)
Time: 19:53:47
(UTC+00:00)

Okean O Rocket - Pass Details

Date: 24 January 2019
Orbit: 623 x 644 km, 98.2° (Epoch: 16 October)

Event Time Altitude Azimuth Distance (km) Brightness Sun altitude
Rises 03:22:39 0° 28° (NNE) 2,955 5.5 -37.2°
Reaches altitude 10° 03:25:32 10° 48° (NE) 2,043 4.8 -36.7°
Maximum altitude 03:28:32 18° 90° (E) 1,592 4.2 -36.3°
Enters shadow 03:29:18 17° 103° (ESE) 1,624 4.2 -36.2°
